Regional Weather Roundup
Issued by NWS

Home | Current Version | Previous Version | Text Only | Print | Product List | Glossary Off
Versions: 1 2 3 4 5 6 7 8 9 10 11 12 13 14 15 16 17 18 19 20 21 22 23 24 25 26 27 28 29 30 31 32 33 34 35 36 37 38 39 40 41 42 43 44 45 46 47 48 49 50

691
ASUS43 KDMX 161206
RWRIA

WEATHER ROUNDUP FOR IOWA
NATIONAL WEATHER SERVICE DES MOINES IA
600 AM CST MON JAN 16 2017

NOTE: "FAIR" INDICATES FEW OR NO CLOUDS BELOW 12,000 FEET WITH NO
SIGNIFICANT WEATHER AND/OR OBSTRUCTIONS TO VISIBILITY.

* - THESE STATIONS ARE NOT NWS STATIONS...THUS NOT UNDER NWS
QUALITY CONTROL.  THEY ALSO DO NOT REPORT WEATHER SUCH
AS PRECIPITATION OR FOG.

IAZ001>003-012>014-020>022-031>034-043>046-161300-
   NORTHWEST IOWA

CITY           SKY/WX    TMP DP  RH WIND       PRES   REMARKS
CARROLL *      CLOUDY    32  32 100 E10       30.08F FOG     WCI  24
CHEROKEE *     MIX PCPN  31  31 100 NE5       30.09F WCI  26
DENISON *      CLOUDY    32  30  93 E9        30.04F WCI  24
LE MARS *      MIX PCPN  32  30  93 NE6       30.09F WCI  26
ORANGE CITY *  MIX PCPN  28  28 100 E5        30.08F WCI  23
SHELDON *      CLOUDY    28  28 100 SE7       30.08S WCI  21
SIOUX CITY     FRZ RAIN  33  31  92 NE7       30.08F FOG     WCI  27
6HR MIN TEMP:  31; 6HR MAX TEMP:  34; 6HR PCP:  0.03;

SPENCER        CLOUDY    28  27  96 E6        30.11F FOG     WCI  22
6HR MIN TEMP:  27; 6HR MAX TEMP:  28;

STORM LAKE *   MIX PCPN  30  30 100 E9        30.08F WCI  22
$$

IAZ055>058-069>071-079>083-090>094-161300-
   SOUTHWEST IOWA

CITY           SKY/WX    TMP DP  RH WIND       PRES   REMARKS
ATLANTIC *     CLOUDY    32  32 100 NE9G16    30.04F FOG     WCI  24
AUDUBON *      CLOUDY    30  28  93 E8        30.07F FOG     WCI  23
CLARINDA *     CLOUDY    32  32 100 NE10      30.03F FOG     WCI  24
COUNCIL BLFS * CLOUDY    32  32 100 NE10G17   30.02F FOG     WCI  24
CRESTON *      CLOUDY    30  30 100 E14       30.04F FOG     WCI  20
HARLAN  *      MIX PCPN  32  32 100 NE9G15    30.08F WCI  24
LAMONI         FRZ RAIN  32  31  96 E12G18    30.03F FOG     WCI  23
6HR MIN TEMP:  31; 6HR MAX TEMP:  32; 6HR PCP:  0.10;

RED OAK *      CLOUDY    32  32 100 NE10      30.02F WCI  24
SHENANDOAH *   CLOUDY    32  32 100 NE12      30.01F WCI  23
$$

IAZ047>049-059>061-072>074-084-161300-
   CENTRAL IOWA

CITY           SKY/WX    TMP DP  RH WIND       PRES   REMARKS
AMES           CLOUDY    31  31 100 E8        30.12F FOG     WCI  23
6HR MIN TEMP:  30; 6HR MAX TEMP:  31; 6HR PCP:  0.06;

ANKENY *       CLOUDY    32  30  93 MISG      30.12F FOG
BOONE *        CLOUDY    30  30 100 MISG      30.09F FOG
CHARITON *     MIX PCPN  32  30  93 E9        30.08F WCI  24
DES MOINES     FRZ RAIN  32  30  92 E7        30.11F FOG     WCI  26
6HR MIN TEMP:  31; 6HR MAX TEMP:  32; 6HR PCP:  0.08;

GRINNELL*      MIX PCPN  31  30  96 E8        30.14S WCI  23
KNOXVILLE *    CLOUDY    32  30  93 E12       30.10F FOG     WCI  23
MARSHALLTOWN   CLOUDY    30  30 100 E10       30.13F FOG     WCI  21
6HR MIN TEMP:  29; 6HR MAX TEMP:  30; 6HR PCP: TRACE;

NEWTON *       CLOUDY    30  30 100 E12       30.12F FOG     WCI  21
PELLA *        MIX PCPN  32  31  96 E7        30.13F WCI  26
PERRY *        CLOUDY    32  32 100 E9        30.09F FOG     WCI  24
$$

IAZ004>006-015-016-023>025-035-036-161300-
   NORTH CENTRAL IOWA

CITY           SKY/WX    TMP DP  RH WIND       PRES   REMARKS
ALGONA *       CLOUDY    30  30 100 E6        30.12F FOG     WCI  24
CLARION *      CLOUDY    30  30 100 E9        30.13S FOG     WCI  22
ESTHERVILLE    CLOUDY    26  26 100 SE6       30.10F FOG     WCI  19
6HR MIN TEMP:  23; 6HR MAX TEMP:  26;

FORT DODGE *   CLOUDY    30  28  93 CALM      30.12F
MASON CITY     CLOUDY    28  26  92 E7        30.15F FOG     WCI  21
6HR MIN TEMP:  24; 6HR MAX TEMP:  28; 6HR PCP:  0.05;

FOREST CITY *  MIX PCPN  28  28 100 SE7       30.14F WCI  21
WEBSTER CITY * CLOUDY    32  32 100 E7G14     30.10F FOG     WCI  26
IOWA FALLS *   MIX PCPN  32  30  94 E8        30.14F WCI  25
$$

IAZ007>011-017>019-026>030-037>042-050>054-066-161300-
   NORTHEAST IOWA

CITY           SKY/WX    TMP DP  RH WIND       PRES   REMARKS
CEDAR RAPIDS   FRZ RAIN  30  29  96 E12       30.16F FOG     WCI  20
6HR MIN TEMP:  28; 6HR MAX TEMP:  30; 6HR PCP:  0.11;

CHARLES CITY * CLOUDY    30  30 100 E7        30.16F FOG     WCI  23
CLINTON *      MIX PCPN  32  31  96 E13       30.22F FOG     WCI  22
DECORAH *      CLOUDY    28  25  86 SE5       30.17F WCI  23
DUBUQUE        FRZ RAIN  29  27  92 E7        30.20F FOG     WCI  22
6HR MIN TEMP:  27; 6HR MAX TEMP:  29; 6HR PCP:  0.18;

MONTICELLO *   MIX PCPN  32  30  93 E7        30.19F WCI  26
OELWEIN *      CLOUDY    30  30 100 SE10      30.17F FOG     WCI  21
WATERLOO       MIX PCPN  31  28  89 E9        30.16F FOG     WCI  23
6HR MIN TEMP:  29; 6HR MAX TEMP:  31; 6HR PCP:  0.20;

$$

IAZ064-065-067-068-078-161300-
   EAST CENTRAL IOWA

CITY           SKY/WX    TMP DP  RH WIND       PRES   REMARKS
DAVENPORT      FRZ RAIN  31  30  96 E12       30.21S FOG     WCI  22
6HR MIN TEMP:  31; 6HR MAX TEMP:  32; 6HR PCP:  0.09;

IOWA CITY      MIX PCPN  33  30  88 E8        30.19F FOG     WCI  26
6HR MIN TEMP:  31; 6HR MAX TEMP:  33; 6HR PCP:  0.19;

MUSCATINE *    CLOUDY    32  32 100 E10       30.19F FOG     WCI  24
QUAD CITIES    LGT RAIN  32  30  92 E10       30.20F FOG     WCI  24
6HR MIN TEMP:  32; 6HR MAX TEMP:  33; 6HR PCP:  0.02;

$$

IAZ062-063-075>077-085>089-095>099-161300-
   SOUTHEAST IOWA

CITY           SKY/WX    TMP DP  RH WIND       PRES   REMARKS
BURLINGTON     FRZ RAIN  32  32 100 E8        30.16F FOG     WCI  25
6HR MIN TEMP:  32; 6HR MAX TEMP:  32; 6HR PCP:  0.08;

FAIRFIELD *    FOG       32  32 100 E14       30.13F VSB 1   WCI  22
FORT MADISON * MIX PCPN  32  30  93 E8        30.16S VSB 3/4 WCI  25
KEOKUK *       CLOUDY    34  34 100 E8        30.14F FOG     WCI  27
OSKALOOSA *    DRIZZLE   31  31  98 E9        30.12F WCI  23
CENTERVILLE *  RAIN      32  32 100 E3        30.09F
OTTUMWA        FRZ RAIN  32  30  92 E12       30.11F FOG     WCI  23
6HR MIN TEMP:  30; 6HR MAX TEMP:  32; 6HR PCP:  0.10;

WASHINGTON *   FOG       32  32 100 E13       30.17F VSB 1   WCI  22
$$

ABBREVIATIONS USED IN REMARKS
   TC - TEMPERATURES IN CELSIUS
  WCI - WIND CHILL INDEX
   HX - HEAT INDEX
  VSB - VISIBILITY
$$





USA.gov is the U.S. government's official web portal to all federal, state and local government web resources and services.